Погода во Френштате под Радхостем

Чехия     49°32′52″N   18°12′27″E
темп.,
°C
ветер,
м/с
пор.,
м/с
влажн.,
%
обл.,
%
осадки,
мм/ч
давл.,
гПа
погр.,
м
20 июня, вс
вс2023:00+17ю228814 1.1 101524
02:00+17ююв22890 1.2 101520
05:00+16ююв22900 0.0 101327
08:00+22зюз12720 0.1 1014249
11:00+27сз11490 0.4 10131506
14:00+23с126797 1.3 1012166
17:00+27зюз12460 0.5 10111384
20:00+22ю227517 0.5 101024
21 июня, пн
пн2123:00+19ююв2276100 0.0 101129
02:00+18ююв227999 0.0 101024
05:00+17ююв228362 0.0 100934
08:00+24ю14626 0.0 1009447
11:00+27юз234587 0.0 10082077
14:00+30юз0236100 0.0 10072717
17:00+22ссз1178100 1.3 100818
20:00+21ююв1183100 3.9 100811
22 июня, вт
вт2223:00+18всв1188100 0.4 100922
02:00+17всв1299100 1.0 1010203
05:00+17вюв1197100 1.6 100920
08:00+18с2396100 6.1 1011243
11:00+20ссв2292100 2.6 1011327
14:00+23ссв2274100 5.2 1011524
17:00+25св1262100 1.9 1011919
20:00+21всв118558 3.8 101212
23 июня, ср
ср2323:00+18всв11930 0.4 101314
02:00+17св119821 1.4 101432
05:00+16ссв1198100 0.0 101438
08:00+18ссв1297100 0.5 1015252
11:00+21с228667 0.9 1016379
14:00+25с22681 2.3 1016876
17:00+26с22621 0.9 10161096
20:00+20с22944 2.6 101748
24 июня, чт
чт2423:00+18св11987 0.2 101812
02:00+17в229818 0.2 101726
05:00+17всв119823 0.0 101723
08:00+21в12865 0.0 1016211
11:00+29ю26460 0.0 10141618
14:00+31ююз57393 0.1 10132355
17:00+30ююв47458 0.0 10121665
20:00+24юз11720 0.1 101130